Flag for U.S.A. Weather past 2 weeks in Paterson, New Jersey, U.S.A.

Now
28 °F

Light snow. Ice fog.


Feels Like: 28 °F
Forecast: 17 / 35 °F
Wind: No wind

Location: Essex County Airport

Current Time: Jan 30, 2015 at 5:59:45 AM

Latest Report: Jan 30, 2015 at 4:53 AM


Visibility: 5 mi

Pressure: 29.88 "Hg

Humidity: 96%

Dew point: 27 °F

Location of PatersonLocation

Historic Weather in Paterson — Graph

°F

Paterson temperature yesterday

Maximum temperature yesterday: 31 °F (at 6:53 PM)
Minimum temperature yesterday: 10 °F (at 7:53 AM)
Average temperature yesterday: 23 °F

Past Weeks' High & Low Weather Summary

 TemperatureHumidityPressure
High41 °F (Jan 16, 12:53 PM)100% (Jan 18, 5:53 PM)30.43 "Hg (Jan 18, 5:53 PM)
Low10 °F (Jan 29, 7:53 AM)22% (Jan 17, 3:53 PM)29.30 "Hg (Jan 24, 3:00 PM)
Average28 °F61%30.01 "Hg
* Reported Jan 15 4:53 AM — Jan 30 4:53 AM, Paterson, Weather by CustomWeather, © 2014

Note: Actual official high and low records may vary slightly from our data, if they occured in-between our weather recording intervals... More about our weather records

Advertising

Paterson weather history for previous 24 hours

 ConditionsComfort  
Time TempWeatherWind HumidityBarometerVisibility
4:53 AM
Jan 30
28 °FLight snow. Ice fog.No wind96%29.88 "Hg5 mi
3:53 AM29 °FIce fog.No wind93%29.89 "Hg6 mi
2:53 AM29 °FLight snow. Ice fog.No wind96%29.92 "Hg4 mi
1:53 AM29 °FLight snow. Ice fog.No wind96%29.94 "Hg2 mi
12:53 AM29 °FLight snow. Ice fog.No wind93%29.97 "Hg2 mi
12:03 AM28 °FLight snow. Ice fog.No wind93%29.98 "Hg2 mi
11:53 PM
Jan 29
28 °FLight snow. Ice fog.3 mph93%30.00 "Hg2 mi
10:53 PM29 °FLight snow. Ice fog.No wind85%30.04 "Hg4 mi
9:53 PM31 °FOvercast.5 mph64%30.07 "Hg10 mi
8:53 PM31 °FOvercast.5 mph61%30.09 "Hg10 mi
7:53 PM31 °FOvercast.8 mph52%30.11 "Hg10 mi
6:53 PM31 °FMostly cloudy.6 mph57%30.12 "Hg10 mi
5:53 PM29 °FPassing clouds.3 mph69%30.15 "Hg10 mi
4:53 PM28 °FOvercast.6 mph61%30.15 "Hg10 mi
3:53 PM30 °FPartly sunny.7 mph43%30.18 "Hg10 mi
2:53 PM30 °FOvercast.8 mph40%30.20 "Hg10 mi
1:53 PM30 °FPartly sunny.6 mph38%30.22 "Hg10 mi
12:53 PM30 °FSunny.No wind30%30.24 "Hg10 mi
11:53 AM29 °FSunny.No wind30%30.29 "Hg10 mi
10:53 AM25 °FSunny.No wind32%30.33 "Hg10 mi
9:53 AM20 °FSunny.No wind40%30.34 "Hg10 mi
8:53 AM15 °FSunny.No wind53%30.35 "Hg10 mi
7:53 AM10 °FSunny.No wind69%30.37 "Hg10 mi
6:53 AM11 °FClear.No wind61%30.37 "Hg10 mi
5:53 AM11 °FClear.No wind64%30.35 "Hg10 mi
Weather by CustomWeather, © 2014

See weather overviewHow to use our weather pages